QTR1185 OEJN-OTHH

Flight info

Callsign QTR1185
Flight time 1h 46m
Altitude 41000
Route EGREP T532 KODIS Y214 RAPMA DCT LADBO T142 LAEEB
Aircraft A35K/H-SDE2E3GHIJ3J4J5LM1ORWXY/LB1D1

Departure

Time 2026-05-05 22:08
Airport King Abdulaziz International Airport (OEJN)

Arrival

Time 2026-05-05 23:54
Airport Hamad International Airport (OTHH)
Time Latitude Longitude Altitude Speed Heading
2026-05-05 21:37 21.67166 39.16983 39 ft 0 kts 157°
2026-05-05 21:54 21.67169 39.16982 39 ft 3 kts 155°
2026-05-05 21:55 21.67190 39.16967 37 ft 4 kts 152°
2026-05-05 21:55 21.67215 39.16957 38 ft 4 kts 172°
2026-05-05 21:55 21.67241 39.16958 36 ft 4 kts 205°
2026-05-05 21:55 21.67260 39.16975 36 ft 3 kts 239°
2026-05-05 21:56 21.67262 39.16979 35 ft 0 kts 241°
2026-05-05 22:00 21.67257 39.16969 38 ft 3 kts 241°
2026-05-05 22:00 21.67242 39.16936 38 ft 6 kts 246°
2026-05-05 22:01 21.67225 39.16880 38 ft 9 kts 255°
2026-05-05 22:01 21.67217 39.16800 38 ft 12 kts 269°
2026-05-05 22:01 21.67227 39.16704 38 ft 14 kts 279°
2026-05-05 22:01 21.67245 39.16590 38 ft 17 kts 280°
2026-05-05 22:02 21.67313 39.16497 37 ft 17 kts 339°
2026-05-05 22:02 21.67429 39.16451 37 ft 19 kts 340°
2026-05-05 22:02 21.67550 39.16396 36 ft 15 kts 316°
2026-05-05 22:02 21.67555 39.16318 36 ft 11 kts 249°
2026-05-05 22:03 21.67524 39.16239 36 ft 12 kts 252°
2026-05-05 22:03 21.67476 39.16165 36 ft 13 kts 200°
2026-05-05 22:03 21.67382 39.16184 36 ft 15 kts 162°
2026-05-05 22:03 21.67273 39.16220 37 ft 17 kts 162°
2026-05-05 22:04 21.67154 39.16268 38 ft 19 kts 157°
2026-05-05 22:04 21.67022 39.16324 39 ft 21 kts 160°
2026-05-05 22:04 21.66875 39.16379 40 ft 24 kts 161°
2026-05-05 22:04 21.66712 39.16440 40 ft 26 kts 161°
2026-05-05 22:05 21.66542 39.16507 41 ft 27 kts 160°
2026-05-05 22:05 21.66363 39.16579 41 ft 28 kts 158°
2026-05-05 22:05 21.66214 39.16633 41 ft 12 kts 185°
2026-05-05 22:05 21.66208 39.16629 41 ft 0 kts 206°
2026-05-05 22:06 21.66195 39.16620 41 ft 8 kts 218°
2026-05-05 22:07 21.66160 39.16560 40 ft 11 kts 247°
2026-05-05 22:07 21.66153 39.16480 40 ft 8 kts 303°
2026-05-05 22:07 21.66197 39.16456 39 ft 1 kts 338°
2026-05-05 22:07 21.66202 39.16454 39 ft 2 kts 338°
2026-05-05 22:08 21.66347 39.16396 40 ft 55 kts 340°
2026-05-05 22:08 21.66943 39.16162 40 ft 125 kts 340°
2026-05-05 22:08 21.67954 39.15764 86 ft 180 kts 341°
2026-05-05 22:08 21.69150 39.15312 847 ft 179 kts 343°
2026-05-05 22:09 21.70320 39.14905 1635 ft 182 kts 343°
2026-05-05 22:09 21.71550 39.14470 2086 ft 192 kts 343°
2026-05-05 22:09 21.72869 39.13967 2414 ft 210 kts 341°
2026-05-05 22:09 21.74283 39.13392 2813 ft 225 kts 339°
2026-05-05 22:10 21.75787 39.12792 3255 ft 237 kts 344°
2026-05-05 22:10 21.77467 39.12636 3685 ft 250 kts
2026-05-05 22:10 21.79155 39.13225 4142 ft 264 kts 30°
2026-05-05 22:10 21.80564 39.14542 4715 ft 273 kts 42°
2026-05-05 22:11 21.81909 39.16010 5288 ft 278 kts 43°
2026-05-05 22:11 21.83283 39.17500 5853 ft 284 kts 43°
2026-05-05 22:11 21.84686 39.19017 6411 ft 289 kts 43°
2026-05-05 22:11 21.86128 39.20545 6967 ft 293 kts 43°
2026-05-05 22:12 21.87610 39.22073 7600 ft 295 kts 43°
2026-05-05 22:12 21.89085 39.23600 8237 ft 296 kts 44°
2026-05-05 22:12 21.90586 39.25170 8700 ft 305 kts 44°
2026-05-05 22:12 21.92125 39.26771 9288 ft 308 kts 44°
2026-05-05 22:13 21.93688 39.28354 9939 ft 310 kts 43°
2026-05-05 22:13 21.95277 39.29964 10372 ft 320 kts 44°
2026-05-05 22:13 21.96925 39.31652 10633 ft 335 kts 44°
2026-05-05 22:13 21.98646 39.33428 10878 ft 350 kts 44°
2026-05-05 22:14 22.00432 39.35280 11118 ft 363 kts 44°
2026-05-05 22:14 22.02258 39.37178 11389 ft 375 kts 45°
2026-05-05 22:14 22.04178 39.39178 11761 ft 383 kts 45°
2026-05-05 22:14 22.06104 39.41185 12162 ft 389 kts 45°
2026-05-05 22:15 22.08063 39.43229 12618 ft 393 kts 45°
2026-05-05 22:15 22.10015 39.45266 13075 ft 397 kts 45°
2026-05-05 22:15 22.12007 39.47345 13504 ft 402 kts 45°
2026-05-05 22:15 22.14031 39.49460 13981 ft 405 kts 45°
2026-05-05 22:16 22.16060 39.51580 14409 ft 408 kts 45°
2026-05-05 22:16 22.17975 39.53583 14840 ft 411 kts 45°
2026-05-05 22:16 22.19266 39.54932 15127 ft 412 kts 45°
2026-05-05 22:16 22.21333 39.57094 15579 ft 415 kts 45°
2026-05-05 22:17 22.23412 39.59270 16081 ft 416 kts 45°
2026-05-05 22:17 22.25492 39.61448 16615 ft 418 kts 45°
2026-05-05 22:17 22.27587 39.63643 17056 ft 421 kts 45°
2026-05-05 22:17 22.29699 39.65857 17495 ft 425 kts 44°
2026-05-05 22:18 22.31823 39.68084 17962 ft 428 kts 44°
2026-05-05 22:18 22.33973 39.70339 18327 ft 433 kts 44°
2026-05-05 22:18 22.36145 39.72618 18726 ft 436 kts 44°
2026-05-05 22:18 22.38327 39.74909 19119 ft 439 kts 44°
2026-05-05 22:19 22.40523 39.77216 19522 ft 442 kts 44°
2026-05-05 22:19 22.42736 39.79541 19900 ft 445 kts 44°
2026-05-05 22:19 22.44960 39.81877 20318 ft 446 kts 45°
2026-05-05 22:19 22.47182 39.84212 20777 ft 447 kts 44°
2026-05-05 22:20 22.49469 39.86516 21145 ft 450 kts 42°
2026-05-05 22:20 22.51824 39.88764 21500 ft 454 kts 41°
2026-05-05 22:20 22.54228 39.91012 21774 ft 459 kts 41°
2026-05-05 22:20 22.56654 39.93272 22096 ft 462 kts 41°
2026-05-05 22:21 22.59091 39.95555 22465 ft 465 kts 41°
2026-05-05 22:21 22.61535 39.97861 22805 ft 467 kts 41°
2026-05-05 22:21 22.63985 40.00189 23154 ft 470 kts 41°
2026-05-05 22:21 22.66407 40.02501 23460 ft 473 kts 41°
2026-05-05 22:22 22.68879 40.04868 23791 ft 475 kts 41°
2026-05-05 22:22 22.71360 40.07245 24047 ft 478 kts 41°
2026-05-05 22:22 22.73860 40.09641 24257 ft 482 kts 41°
2026-05-05 22:22 22.76380 40.12058 24523 ft 484 kts 41°
2026-05-05 22:23 22.78903 40.14478 24771 ft 487 kts 41°
2026-05-05 22:23 22.81448 40.16920 25040 ft 489 kts 41°
2026-05-05 22:23 22.84004 40.19374 25299 ft 492 kts 41°
2026-05-05 22:23 22.86572 40.21840 25536 ft 494 kts 41°
2026-05-05 22:24 22.89154 40.24322 25777 ft 497 kts 40°
2026-05-05 22:24 22.91744 40.26812 26021 ft 500 kts 40°
2026-05-05 22:24 22.94358 40.29327 26268 ft 503 kts 40°
2026-05-05 22:24 22.96989 40.31858 26483 ft 506 kts 40°
2026-05-05 22:25 22.99627 40.34399 26764 ft 508 kts 40°
2026-05-05 22:25 23.02276 40.36951 27030 ft 511 kts 40°
2026-05-05 22:25 23.04041 40.38652 27191 ft 513 kts 40°
2026-05-05 22:25 23.06713 40.41229 27444 ft 515 kts 40°
2026-05-05 22:26 23.09401 40.43823 27721 ft 518 kts 40°
2026-05-05 22:26 23.12109 40.46437 27925 ft 522 kts 40°
2026-05-05 22:26 23.14822 40.49057 28211 ft 524 kts 40°
2026-05-05 22:26 23.18444 40.52560 28585 ft 527 kts 39°
2026-05-05 22:27 23.20292 40.54347 28782 ft 529 kts 40°
2026-05-05 22:27 23.23058 40.57024 29047 ft 532 kts 40°
2026-05-05 22:27 23.25663 40.59893 29264 ft 537 kts 48°
2026-05-05 22:27 23.27874 40.63178 29548 ft 540 kts 58°
2026-05-05 22:28 23.29583 40.66825 29743 ft 544 kts 67°
2026-05-05 22:28 23.31037 40.70636 30015 ft 546 kts 70°
2026-05-05 22:28 23.32398 40.74503 30274 ft 549 kts 71°
2026-05-05 22:28 23.33726 40.78417 30522 ft 551 kts 71°
2026-05-05 22:29 23.35044 40.82334 30768 ft 554 kts 71°
2026-05-05 22:29 23.36378 40.86279 31008 ft 557 kts 71°
2026-05-05 22:29 23.37728 40.90240 31263 ft 559 kts 71°
2026-05-05 22:29 23.39092 40.94212 31587 ft 561 kts 71°
2026-05-05 22:30 23.40468 40.98202 31987 ft 564 kts 70°
2026-05-05 22:30 23.41859 41.02226 32257 ft 570 kts 70°
2026-05-05 22:30 23.43261 41.06281 32574 ft 573 kts 70°
2026-05-05 22:30 23.44668 41.10356 32948 ft 575 kts 70°
2026-05-05 22:31 23.46072 41.14423 33400 ft 574 kts 70°
2026-05-05 22:31 23.47454 41.18432 33943 ft 573 kts 70°
2026-05-05 22:31 23.48851 41.22490 34342 ft 572 kts 70°
2026-05-05 22:31 23.50247 41.26552 34741 ft 571 kts 71°
2026-05-05 22:32 23.51636 41.30599 35178 ft 570 kts 71°
2026-05-05 22:32 23.53023 41.34642 35587 ft 569 kts 71°
2026-05-05 22:32 23.54409 41.38687 35934 ft 569 kts 71°
2026-05-05 22:32 23.55787 41.42712 36297 ft 568 kts 71°
2026-05-05 22:33 23.57170 41.46756 36682 ft 567 kts 71°
2026-05-05 22:33 23.58541 41.50770 37051 ft 566 kts 71°
2026-05-05 22:33 23.59914 41.54793 37416 ft 565 kts 71°
2026-05-05 22:33 23.61282 41.58806 37778 ft 563 kts 71°
2026-05-05 22:34 23.62639 41.62788 38228 ft 560 kts 72°
2026-05-05 22:34 23.63995 41.66769 38577 ft 559 kts 72°
2026-05-05 22:34 23.65345 41.70742 38866 ft 559 kts 72°
2026-05-05 22:34 23.66697 41.74722 39010 ft 561 kts 72°
2026-05-05 22:35 23.68045 41.78732 39169 ft 562 kts 73°
2026-05-05 22:35 23.69338 41.82730 39500 ft 558 kts 73°
2026-05-05 22:35 23.70605 41.86735 39798 ft 557 kts 73°
2026-05-05 22:35 23.71858 41.90729 40036 ft 556 kts 73°
2026-05-05 22:36 23.73108 41.94711 40250 ft 555 kts 73°
2026-05-05 22:36 23.74366 41.98705 40474 ft 555 kts 73°
2026-05-05 22:36 23.75642 42.02663 40732 ft 553 kts 72°
2026-05-05 22:36 23.76977 42.06608 40959 ft 552 kts 71°
2026-05-05 22:37 23.78331 42.10523 41003 ft 553 kts 71°
2026-05-05 22:37 23.81059 42.18387 41000 ft 556 kts 71°
2026-05-05 22:38 23.83787 42.26337 41002 ft 562 kts 71°
2026-05-05 22:38 23.86520 42.34366 41002 ft 565 kts 71°
2026-05-05 22:39 23.89251 42.42413 41021 ft 565 kts 72°
2026-05-05 22:39 23.91980 42.50473 41000 ft 566 kts 72°
2026-05-05 22:40 23.94713 42.58559 41000 ft 566 kts 72°
2026-05-05 22:40 23.97415 42.66569 40998 ft 565 kts 72°
2026-05-05 22:41 24.00134 42.74643 40996 ft 564 kts 72°
2026-05-05 22:41 24.02766 42.82744 40992 ft 564 kts 77°
2026-05-05 22:41 24.03531 42.86925 40990 ft 559 kts 88°
2026-05-05 22:42 24.03633 42.91141 40997 ft 550 kts 99°
2026-05-05 22:42 24.02120 42.99224 40997 ft 539 kts 112°
2026-05-05 22:43 23.99977 43.07074 40999 ft 538 kts 114°
2026-05-05 22:43 23.97759 43.14905 40992 ft 540 kts 113°
2026-05-05 22:44 23.95573 43.22776 40993 ft 542 kts 113°
2026-05-05 22:44 23.93411 43.30675 40992 ft 542 kts 112°
2026-05-05 22:45 23.91273 43.38509 40985 ft 542 kts 112°
2026-05-05 22:45 23.89097 43.46453 40980 ft 542 kts 112°
2026-05-05 22:46 23.86943 43.54293 40975 ft 541 kts 112°
2026-05-05 22:46 23.84775 43.62169 40966 ft 541 kts 112°
2026-05-05 22:47 23.82591 43.70080 40964 ft 540 kts 112°
2026-05-05 22:47 23.80434 43.77881 40955 ft 539 kts 112°
2026-05-05 22:48 23.78272 43.85698 40957 ft 538 kts 111°
2026-05-05 22:48 23.77013 43.93808 40944 ft 544 kts 101°
2026-05-05 22:49 23.76346 44.02040 40923 ft 545 kts 99°
2026-05-05 22:49 23.75772 44.10289 40931 ft 544 kts 99°
2026-05-05 22:50 23.75182 44.18527 40929 ft 545 kts 99°
2026-05-05 22:50 23.74565 44.26782 40826 ft 545 kts 99°
2026-05-05 22:50 23.74252 44.30901 40598 ft 545 kts 99°
2026-05-05 22:51 23.73937 44.35022 40212 ft 546 kts 99°
2026-05-05 22:51 23.73620 44.39155 39697 ft 547 kts 99°
2026-05-05 22:51 23.73301 44.43290 39200 ft 547 kts 99°
2026-05-05 22:51 23.72981 44.47440 38973 ft 548 kts 99°
2026-05-05 22:52 23.72660 44.51589 38929 ft 549 kts 99°
2026-05-05 22:52 23.72015 44.59886 38923 ft 549 kts 99°
2026-05-05 22:53 23.71366 44.68181 38925 ft 548 kts 99°
2026-05-05 22:53 23.70715 44.76455 38926 ft 548 kts 99°
2026-05-05 22:54 23.70057 44.84746 38922 ft 548 kts 99°
2026-05-05 22:54 23.69397 44.93021 38919 ft 548 kts 99°
2026-05-05 22:55 23.68730 45.01304 38914 ft 548 kts 99°
2026-05-05 22:55 23.68058 45.09583 38914 ft 547 kts 99°
2026-05-05 22:56 23.67390 45.17774 38909 ft 546 kts 99°
2026-05-05 22:56 23.66716 45.26026 38908 ft 546 kts 99°
2026-05-05 22:57 23.66034 45.34266 38902 ft 546 kts 99°
2026-05-05 22:57 23.65346 45.42515 38895 ft 546 kts 99°
2026-05-05 22:58 23.64653 45.50779 38892 ft 547 kts 99°
2026-05-05 22:58 23.63958 45.59034 38880 ft 546 kts 99°
2026-05-05 22:59 23.63264 45.67272 38878 ft 546 kts 99°
2026-05-05 22:59 23.62560 45.75517 38867 ft 545 kts 99°
2026-05-05 23:00 23.61497 45.87821 38870 ft 546 kts 99°
2026-05-05 23:00 23.60782 45.96052 38870 ft 546 kts 99°
2026-05-05 23:01 23.60062 46.04301 38873 ft 546 kts 99°
2026-05-05 23:01 23.59338 46.12548 38883 ft 546 kts 99°
2026-05-05 23:02 23.58610 46.20792 38883 ft 546 kts 99°
2026-05-05 23:02 23.57879 46.29024 38891 ft 546 kts 99°
2026-05-05 23:03 23.57141 46.37267 38891 ft 546 kts 99°
2026-05-05 23:03 23.56399 46.45504 38898 ft 545 kts 99°
2026-05-05 23:04 23.55660 46.53690 38896 ft 545 kts 99°
2026-05-05 23:04 23.54916 46.61910 38876 ft 545 kts 99°
2026-05-05 23:05 23.54162 46.70114 38875 ft 543 kts 99°
2026-05-05 23:05 23.53401 46.78365 38866 ft 543 kts 99°
2026-05-05 23:06 23.52647 46.86485 38858 ft 543 kts 99°
2026-05-05 23:06 23.51884 46.94673 38858 ft 543 kts 99°
2026-05-05 23:07 23.51117 47.02856 38843 ft 543 kts 99°
2026-05-05 23:07 23.50345 47.11046 38839 ft 543 kts 99°
2026-05-05 23:08 23.49570 47.19223 38834 ft 541 kts 99°
2026-05-05 23:08 23.48795 47.27367 38828 ft 540 kts 99°
2026-05-05 23:09 23.48015 47.35494 38827 ft 539 kts 99°
2026-05-05 23:09 23.47232 47.43615 38825 ft 539 kts 99°
2026-05-05 23:10 23.46449 47.51690 38826 ft 539 kts 99°
2026-05-05 23:10 23.45655 47.59860 38821 ft 539 kts 99°
2026-05-05 23:11 23.44863 47.67937 38812 ft 539 kts 99°
2026-05-05 23:11 23.44065 47.76040 38815 ft 538 kts 99°
2026-05-05 23:12 23.43263 47.84140 38814 ft 538 kts 99°
2026-05-05 23:12 23.42460 47.92221 38810 ft 537 kts 99°
2026-05-05 23:13 23.41786 47.98961 38808 ft 537 kts 99°
2026-05-05 23:13 23.40973 48.07050 38804 ft 538 kts 99°
2026-05-05 23:14 23.40155 48.15153 38800 ft 538 kts 99°
2026-05-05 23:14 23.39337 48.23211 38804 ft 538 kts 99°
2026-05-05 23:15 23.38633 48.31324 38794 ft 541 kts 92°
2026-05-05 23:15 23.38980 48.35411 38794 ft 544 kts 79°
2026-05-05 23:15 23.39997 48.39396 38797 ft 545 kts 73°
2026-05-05 23:16 23.42536 48.47199 38798 ft 547 kts 70°
2026-05-05 23:16 23.45245 48.54943 38794 ft 548 kts 70°
2026-05-05 23:17 23.47917 48.62669 38791 ft 548 kts 70°
2026-05-05 23:17 23.50566 48.70464 38791 ft 548 kts 70°
2026-05-05 23:18 23.53197 48.78265 38786 ft 548 kts 70°
2026-05-05 23:18 23.55823 48.86074 38785 ft 548 kts 70°
2026-05-05 23:19 23.58447 48.93882 38783 ft 549 kts 70°
2026-05-05 23:19 23.61069 49.01698 38785 ft 549 kts 70°
2026-05-05 23:20 23.63688 49.09522 38784 ft 549 kts 70°
2026-05-05 23:20 23.66302 49.17344 38783 ft 549 kts 70°
2026-05-05 23:21 23.68917 49.25182 38783 ft 550 kts 70°
2026-05-05 23:21 23.71509 49.32966 38778 ft 549 kts 70°
2026-05-05 23:22 23.74114 49.40807 38783 ft 549 kts 70°
2026-05-05 23:22 23.76714 49.48646 38783 ft 549 kts 70°
2026-05-05 23:23 23.79309 49.56484 38780 ft 549 kts 70°
2026-05-05 23:23 23.81901 49.64331 38780 ft 549 kts 70°
2026-05-05 23:24 23.84490 49.72180 38779 ft 549 kts 70°
2026-05-05 23:24 23.87069 49.80017 38779 ft 549 kts 70°
2026-05-05 23:25 23.89648 49.87869 38780 ft 549 kts 70°
2026-05-05 23:25 23.92207 49.95675 38767 ft 545 kts 70°
2026-05-05 23:26 23.94706 50.03310 38777 ft 538 kts 70°
2026-05-05 23:26 23.97219 50.11006 38776 ft 538 kts 70°
2026-05-05 23:27 23.99728 50.18703 38776 ft 538 kts 71°
2026-05-05 23:27 24.02242 50.26431 38774 ft 539 kts 71°
2026-05-05 23:28 24.04751 50.34158 38775 ft 539 kts 71°
2026-05-05 23:28 24.07252 50.41875 38774 ft 539 kts 71°
2026-05-05 23:29 24.09756 50.49616 38774 ft 539 kts 71°
2026-05-05 23:29 24.12249 50.57339 38774 ft 539 kts 71°
2026-05-05 23:30 24.13492 50.61195 38533 ft 534 kts 71°
2026-05-05 23:30 24.14729 50.65035 37667 ft 536 kts 71°
2026-05-05 23:30 24.15974 50.68904 36748 ft 541 kts 71°
2026-05-05 23:30 24.17226 50.72799 35872 ft 545 kts 71°
2026-05-05 23:31 24.18482 50.76712 35014 ft 548 kts 71°
2026-05-05 23:31 24.19752 50.80670 34176 ft 551 kts 71°
2026-05-05 23:31 24.21027 50.84648 33266 ft 554 kts 71°
2026-05-05 23:31 24.22301 50.88629 32384 ft 555 kts 70°
2026-05-05 23:32 24.23578 50.92624 31543 ft 555 kts 70°
2026-05-05 23:32 24.24853 50.96613 30749 ft 554 kts 70°
2026-05-05 23:32 24.26122 51.00591 29955 ft 553 kts 70°
2026-05-05 23:32 24.27388 51.04559 29128 ft 551 kts 70°
2026-05-05 23:33 24.28649 51.08520 28373 ft 547 kts 70°
2026-05-05 23:33 24.29894 51.12433 27650 ft 541 kts 70°
2026-05-05 23:33 24.31140 51.16301 27004 ft 535 kts 68°
2026-05-05 23:33 24.32850 51.19878 26335 ft 528 kts 54°
2026-05-05 23:34 24.35273 51.22867 25692 ft 519 kts 39°
2026-05-05 23:34 24.38178 51.25025 25109 ft 508 kts 24°
2026-05-05 23:34 24.41459 51.26316 24511 ft 496 kts
2026-05-05 23:34 24.44855 51.26640 23908 ft 485 kts 355°
2026-05-05 23:35 24.48188 51.26409 23186 ft 471 kts 353°
2026-05-05 23:35 24.51423 51.25966 22077 ft 470 kts 351°
2026-05-05 23:35 24.54665 51.25629 21392 ft 466 kts 354°
2026-05-05 23:35 24.57879 51.25502 20744 ft 461 kts 357°
2026-05-05 23:36 24.61073 51.25511 20154 ft 455 kts 359°
2026-05-05 23:36 24.64209 51.25598 19539 ft 450 kts
2026-05-05 23:36 24.67336 51.25729 18864 ft 446 kts
2026-05-05 23:36 24.70381 51.25882 18282 ft 427 kts
2026-05-05 23:37 24.73280 51.26042 17794 ft 409 kts
2026-05-05 23:37 24.76071 51.26201 17642 ft 394 kts
2026-05-05 23:37 24.78747 51.26357 17519 ft 379 kts
2026-05-05 23:37 24.81331 51.26510 17368 ft 365 kts
2026-05-05 23:38 24.83817 51.26665 17220 ft 352 kts
2026-05-05 23:38 24.86164 51.27222 17053 ft 342 kts 21°
2026-05-05 23:38 24.88091 51.28691 16796 ft 337 kts 45°
2026-05-05 23:38 24.89297 51.30865 16492 ft 332 kts 66°
2026-05-05 23:39 24.90097 51.33221 16293 ft 323 kts 69°
2026-05-05 23:39 24.90822 51.35512 16053 ft 309 kts 69°
2026-05-05 23:39 24.91515 51.37687 15591 ft 301 kts 68°
2026-05-05 23:39 24.92212 51.39843 15009 ft 296 kts 68°
2026-05-05 23:40 24.92904 51.41966 14453 ft 292 kts 68°
2026-05-05 23:40 24.93590 51.44059 13900 ft 289 kts 68°
2026-05-05 23:40 24.94266 51.46118 13316 ft 285 kts 67°
2026-05-05 23:40 24.94939 51.48163 12691 ft 282 kts 67°
2026-05-05 23:41 24.95606 51.50190 12070 ft 280 kts 67°
2026-05-05 23:41 24.96268 51.52203 11473 ft 278 kts 67°
2026-05-05 23:41 24.96923 51.54197 10869 ft 276 kts 67°
2026-05-05 23:41 24.97437 51.56220 10245 ft 277 kts 81°
2026-05-05 23:42 24.97146 51.58311 9566 ft 281 kts 114°
2026-05-05 23:42 24.95888 51.59917 8907 ft 280 kts 147°
2026-05-05 23:42 24.94140 51.60810 8317 ft 276 kts 159°
2026-05-05 23:42 24.92335 51.61528 7739 ft 274 kts 160°
2026-05-05 23:43 24.90547 51.62240 7171 ft 272 kts 159°
2026-05-05 23:43 24.88788 51.62959 6678 ft 266 kts 159°
2026-05-05 23:43 24.87069 51.63675 6385 ft 265 kts 158°
2026-05-05 23:43 24.85350 51.64399 6168 ft 263 kts 158°
2026-05-05 23:44 24.83661 51.65114 5931 ft 261 kts 158°
2026-05-05 23:44 24.81974 51.65882 5692 ft 259 kts 150°
2026-05-05 23:44 24.80673 51.67152 5482 ft 253 kts 122°
2026-05-05 23:44 24.80076 51.68934 5266 ft 247 kts 93°
2026-05-05 23:45 24.80227 51.70792 5055 ft 243 kts 76°
2026-05-05 23:45 24.80750 51.72547 4850 ft 241 kts 65°
2026-05-05 23:45 24.81414 51.74240 4643 ft 240 kts 64°
2026-05-05 23:45 24.82094 51.75921 4435 ft 239 kts 64°
2026-05-05 23:46 24.83021 51.77412 4218 ft 236 kts 40°
2026-05-05 23:46 24.84463 51.78220 4001 ft 235 kts 15°
2026-05-05 23:46 24.86128 51.78545 3805 ft 255 kts
2026-05-05 23:46 24.87944 51.78323 3599 ft 268 kts 348°
2026-05-05 23:47 24.89779 51.77900 3393 ft 270 kts 351°
2026-05-05 23:47 24.91617 51.77480 3206 ft 270 kts 348°
2026-05-05 23:47 24.93417 51.76874 3186 ft 271 kts 342°
2026-05-05 23:47 24.95175 51.76122 3181 ft 271 kts 339°
2026-05-05 23:48 24.96915 51.75322 3184 ft 271 kts 339°
2026-05-05 23:48 24.98653 51.74529 3184 ft 271 kts 339°
2026-05-05 23:48 25.00388 51.73759 3175 ft 264 kts 340°
2026-05-05 23:48 25.02035 51.73037 3165 ft 246 kts 340°
2026-05-05 23:49 25.03570 51.72363 3143 ft 228 kts 340°
2026-05-05 23:49 25.04969 51.71748 3147 ft 209 kts 340°
2026-05-05 23:49 25.06265 51.71177 3123 ft 194 kts 341°
2026-05-05 23:49 25.07508 51.70631 3120 ft 192 kts 341°
2026-05-05 23:50 25.08752 51.70083 3121 ft 192 kts 341°
2026-05-05 23:50 25.09995 51.69536 3086 ft 190 kts 341°
2026-05-05 23:50 25.11194 51.69006 2872 ft 183 kts 341°
2026-05-05 23:50 25.12360 51.68493 2615 ft 178 kts 341°
2026-05-05 23:51 25.13492 51.67994 2391 ft 173 kts 341°
2026-05-05 23:51 25.14602 51.67505 2187 ft 170 kts 341°
2026-05-05 23:51 25.15681 51.67029 1962 ft 163 kts 341°
2026-05-05 23:51 25.16716 51.66572 1759 ft 159 kts 341°
2026-05-05 23:52 25.17728 51.66126 1577 ft 154 kts 341°
2026-05-05 23:52 25.18708 51.65693 1370 ft 150 kts 341°
2026-05-05 23:52 25.19677 51.65266 1191 ft 150 kts 341°
2026-05-05 23:52 25.20650 51.64836 1006 ft 151 kts 340°
2026-05-05 23:53 25.21623 51.64406 830 ft 150 kts 340°
2026-05-05 23:53 25.22587 51.63982 655 ft 149 kts 339°
2026-05-05 23:53 25.23543 51.63558 466 ft 148 kts 339°
2026-05-05 23:53 25.24500 51.63136 282 ft 148 kts 340°
2026-05-05 23:54 25.25448 51.62736 69 ft 147 kts 339°
2026-05-05 23:54 25.26347 51.62344 29 ft 119 kts 338°
2026-05-05 23:54 25.26934 51.62082 29 ft 63 kts 338°
2026-05-05 23:54 25.27240 51.61947 28 ft 46 kts 335°
2026-05-05 23:55 25.27439 51.61770 29 ft 21 kts 308°
2026-05-05 23:55 25.27447 51.61695 29 ft 8 kts 231°
2026-05-05 23:55 25.27387 51.61683 28 ft 10 kts 171°
2026-05-05 23:55 25.27310 51.61712 28 ft 13 kts 156°
2026-05-05 23:56 25.27214 51.61757 28 ft 16 kts 157°
2026-05-05 23:56 25.27102 51.61805 28 ft 19 kts 159°
2026-05-05 23:56 25.26977 51.61859 27 ft 20 kts 158°
2026-05-05 23:56 25.26844 51.61919 27 ft 22 kts 157°
2026-05-05 23:57 25.26698 51.61983 28 ft 24 kts 158°
2026-05-05 23:57 25.26582 51.62009 28 ft 11 kts 211°
2026-05-05 23:57 25.26543 51.61939 28 ft 12 kts 246°
2026-05-05 23:57 25.26508 51.61842 28 ft 15 kts 248°
2026-05-05 23:58 25.26464 51.61723 28 ft 18 kts 248°
2026-05-05 23:58 25.26413 51.61582 28 ft 21 kts 248°
2026-05-05 23:58 25.26414 51.61466 28 ft 11 kts 322°
2026-05-05 23:58 25.26445 51.61427 28 ft 3 kts 273°
2026-05-05 23:59 25.26437 51.61398 28 ft 4 kts 250°
2026-05-05 23:59 25.26426 51.61367 28 ft 2 kts 248°
2026-05-05 23:59 25.26422 51.61356 28 ft 0 kts 248°
2026-05-05 23:59 25.26422 51.61355 28 ft 1 kts 248°
2026-05-06 00:00 25.26419 51.61347 28 ft 0 kts 248°